Location: Julian California
(33.0790°N, 116.6010°W)
Time: 02:35:26
(UTC-07:00)

Cosmos 44 - Pass Details

Date: 12 July 2018
Orbit: 571 x 791 km, 65.1° (Epoch: 19 September)

Event Time Altitude Azimuth Distance (km) Brightness Sun altitude
Rises 20:52:33 0° 192° (SSW) 2,866 6.2 -10.8°
Reaches altitude 10° 20:54:48 10° 186° (S) 1,995 5.4 -11.2°
Maximum altitude 20:59:08 47° 113° (ESE) 870 3.4 -11.9°
Drops below altitude 10° 21:03:46 10° 40° (NE) 2,142 5.8 -12.7°
Sets 21:06:16 0° 35° (NE) 3,101 6.7 -13.1°
